Date,TemperatureHighF,TemperatureAvgF,TemperatureLowF,DewpointHighF,DewpointAvgF,DewpointLowF,HumidityHigh,HumidityAvg,HumidityLow,PressureMaxIn,PressureMinIn,WindSpeedMaxMPH,WindSpeedAvgMPH,GustSpeedMaxMPH,PrecipitationSumIn
2013-1-1,31.0,28.2,25.0,14.0,11.5,11.0,56,49,44,0.00,40.00,14,8,29,0.00
2013-1-2,28.0,24.6,22.0,15.0,13.8,12.0,72,62,53,0.00,40.00,7,5,22,0.00
2013-1-3,29.0,26.2,22.0,13.0,10.0,6.0,53,49,44,0.00,40.00,9,5,22,0.00
2013-1-4,23.0,18.3,15.0,7.0,5.1,4.0,62,55,48,0.00,40.00,9,7,22,0.00
2013-1-5,21.0,18.1,15.0,7.0,5.9,5.0,64,58,54,0.00,40.00,7,5,19,0.00
2013-1-6,20.0,17.6,15.0,7.0,5.6,4.0,68,58,53,0.00,40.00,7,4,16,0.00
2013-1-7,20.0,16.2,8.0,9.0,5.9,2.0,77,63,58,0.00,40.00,7,4,14,0.00
2013-1-8,8.0,1.3,-2.0,3.0,-2.7,-6.0,84,83,78,0.00,40.00,6,3,12,0.00
2013-1-14,30.0,26.8,24.0,28.0,24.2,19.0,93,89,81,0.00,40.00,10,9,22,0.00
2013-1-15,24.0,13.2,10.0,19.0,7.4,4.0,86,77,61,0.00,40.00,12,7,22,0.00
2013-1-16,13.0,10.3,8.0,6.0,3.8,2.0,76,74,71,0.00,40.00,5,4,10,0.00
2013-1-23,6.0,3.1,-1.0,-3.0,-7.1,-12.0,66,61,58,0.00,40.00,19,13,29,0.00
2013-1-24,0.0,-7.7,-14.0,-11.0,-18.2,-23.0,65,59,55,0.00,40.00,17,9,24,0.00
2013-1-25,-10.0,-13.1,-17.0,-21.0,-23.1,-27.0,65,60,55,0.00,40.00,7,2,12,0.00
2013-1-26,-14.0,-22.3,-27.0,-24.0,-29.5,-34.0,68,67,57,0.00,40.00,7,2,9,0.00
2013-1-27,-23.0,-28.1,-32.0,-30.0,-35.2,-41.0,68,67,67,0.00,40.00,4,1,7,0.00
2013-1-28,-13.0,-23.3,-35.0,-22.0,-31.1,-42.0,68,65,57,0.00,40.00,11,6,24,0.00
2013-1-29,-8.0,-11.6,-16.0,-16.0,-19.6,-24.0,71,66,63,0.00,40.00,9,5,24,0.00
2013-1-30,6.0,-1.8,-9.0,-3.0,-9.4,-16.0,73,69,66,0.00,40.00,7,5,18,0.00
2013-1-31,8.0,5.0,4.0,3.0,0.1,-2.0,81,79,72,0.00,40.00,8,3,15,0.00
2013-2-1,12.0,8.2,4.0,8.0,2.9,-1.0,83,78,68,0.00,40.00,10,5,17,0.00
2013-2-2,19.0,15.5,11.0,4.0,1.6,-1.0,68,54,45,0.00,40.00,11,6,21,0.00
2013-2-3,20.0,15.9,11.0,10.0,6.1,4.0,78,64,54,0.00,40.00,7,4,12,0.00
2013-2-4,15.0,10.1,7.0,12.0,6.4,4.0,87,84,78,0.00,40.00,6,2,10,0.00
2013-2-5,14.0,7.3,4.0,11.0,3.7,0.0,87,85,83,0.00,40.00,6,2,9,0.00
2013-2-6,8.0,-1.5,-7.0,4.0,-5.6,-11.0,84,82,80,0.00,40.00,6,2,8,0.00
2013-2-7,11.0,4.5,-4.0,7.0,0.1,-8.0,85,81,77,0.00,40.00,7,3,12,0.00
2013-2-8,11.0,5.0,0.0,7.0,1.0,-4.0,85,82,79,0.00,40.00,5,2,10,0.00
2013-2-9,27.0,22.2,10.0,17.0,13.8,7.0,84,69,62,0.00,40.00,11,7,26,0.00
2013-2-10,33.0,23.7,11.0,20.0,16.4,5.0,91,74,58,0.00,40.00,12,6,21,0.00
2013-2-11,20.0,13.9,10.0,18.0,11.0,7.0,90,87,86,0.00,40.00,6,3,9,0.00
2013-2-12,14.0,11.8,8.0,11.0,8.6,4.0,87,86,85,0.00,40.00,5,3,12,0.00
2013-2-13,23.0,19.6,14.0,12.0,9.0,6.0,87,63,53,0.00,40.00,7,5,16,0.00
2013-2-14,24.0,20.7,18.0,9.0,6.2,5.0,59,52,43,0.00,40.00,8,5,20,0.00
2013-2-15,19.0,3.8,-6.0,6.0,-0.9,-10.0,85,80,55,0.00,40.00,12,6,24,0.00
2013-2-16,0.0,-4.0,-9.0,-6.0,-9.5,-14.0,81,77,71,0.00,40.00,6,3,11,0.00
2013-2-17,1.0,-7.1,-13.0,-6.0,-12.3,-18.0,79,77,68,0.00,40.00,13,7,20,0.00
2013-2-18,-12.0,-15.9,-20.0,-17.0,-21.0,-25.0,78,77,76,0.00,40.00,10,4,18,0.00
2013-2-19,-5.0,-9.4,-16.0,-13.0,-16.9,-22.0,77,68,63,0.00,40.00,16,10,22,0.00
2013-2-20,2.0,-3.3,-8.0,-9.0,-12.8,-15.0,75,62,57,0.00,40.00,17,11,23,0.00
2013-2-21,-2.0,-6.4,-12.0,-8.0,-11.6,-18.0,79,77,73,0.00,40.00,11,7,18,0.00
2013-2-22,-9.0,-13.0,-16.0,-14.0,-18.3,-21.0,77,77,76,0.00,40.00,6,3,11,0.00
2013-2-23,6.0,-2.4,-9.0,-3.0,-9.9,-15.0,77,69,64,0.00,40.00,11,8,16,0.00
2013-2-24,6.0,1.3,-5.0,-4.0,-7.3,-13.0,75,66,57,0.00,40.00,7,3,11,0.00
2013-2-25,22.0,12.1,-1.0,6.0,0.3,-9.0,70,59,47,0.00,40.00,7,3,12,0.00
2013-2-26,20.0,16.6,12.0,4.0,2.9,1.0,61,54,49,0.00,40.00,6,4,12,0.00
2013-3-11,19.0,15.7,13.0,7.0,5.4,3.0,71,63,55,0.00,40.00,10,6,14,0.00
2013-3-12,23.0,15.5,8.0,3.0,-3.9,-11.0,62,42,28,0.00,40.00,11,4,15,0.00
2013-3-13,15.0,6.8,-5.0,-7.0,-14.5,-22.0,44,36,30,0.00,40.00,22,11,32,0.00
2013-3-14,17.0,2.4,-9.0,-10.0,-17.5,-25.0,44,38,29,0.00,40.00,19,11,29,0.00
2013-3-15,19.0,9.5,4.0,-10.0,-14.6,-18.0,37,32,25,0.00,40.00,13,8,22,0.00
2013-3-16,22.0,12.7,7.0,-4.0,-9.2,-14.0,39,36,31,0.00,40.00,9,5,24,0.00
2013-3-17,18.0,11.6,6.0,-2.0,-6.6,-10.0,54,43,38,0.00,40.00,6,3,9,0.00
2013-3-18,16.0,9.9,4.0,-4.0,-7.2,-11.0,50,45,39,0.00,40.00,7,4,12,0.00
2013-3-19,14.0,7.9,3.0,-5.0,-8.2,-12.0,53,47,41,0.00,40.00,10,5,16,0.00
2013-3-20,11.0,3.4,-5.0,-1.0,-8.4,-14.0,80,57,45,0.00,40.00,7,4,14,0.00
2013-3-21,20.0,9.0,2.0,11.0,3.8,-1.0,86,79,64,0.00,40.00,6,3,10,0.00
2013-3-22,30.0,17.6,10.0,14.0,2.1,-2.0,88,51,34,0.00,40.00,11,6,24,0.01
2013-3-23,12.0,-1.2,-9.0,9.0,-10.8,-18.0,88,65,36,0.00,40.00,12,6,24,0.01
2013-3-24,8.0,1.9,-1.0,-2.0,-7.2,-12.0,84,66,46,0.00,40.00,9,5,16,0.00
2013-3-25,5.0,0.0,-4.0,1.0,-3.8,-8.0,85,83,77,0.00,40.00,14,7,22,0.00
2013-3-26,0.0,-4.8,-8.0,-8.0,-11.9,-16.0,82,71,54,0.00,40.00,17,10,26,0.00
2013-3-27,10.0,-0.5,-12.0,-9.0,-12.2,-17.0,78,58,40,0.00,40.00,7,2,13,0.00
2013-3-28,31.0,20.2,4.0,3.0,-1.2,-9.0,56,39,30,0.00,40.00,6,4,14,0.07
2013-3-29,42.0,31.1,23.0,13.0,8.0,3.0,44,37,29,0.00,40.00,8,4,14,0.01
2013-3-30,39.0,30.6,20.0,13.0,8.8,-99.9,59,42,34,0.00,40.00,7,2,9,0.01
2013-3-31,38.0,32.3,27.0,24.0,17.4,11.0,90,54,44,0.00,40.00,6,2,11,0.00
2013-4-1,37.0,27.6,24.0,27.0,22.7,12.0,93,83,54,0.00,40.00,10,5,15,0.13
2013-4-2,28.0,23.6,19.0,13.0,7.6,2.0,60,50,39,0.00,40.00,11,6,16,0.02
2013-4-3,29.0,20.7,14.0,5.0,1.0,-8.0,53,42,30,0.00,40.00,20,11,30,0.00
2013-4-4,29.0,18.0,12.0,-7.0,-8.5,-10.0,38,30,18,0.00,40.00,18,9,26,0.00
2013-4-5,14.0,9.7,0.0,-6.0,-10.5,-16.0,44,38,32,0.00,40.00,17,13,27,0.00
2013-4-6,9.0,2.8,-2.0,-10.0,-13.6,-17.0,50,45,40,0.00,40.00,15,8,24,0.00
2013-4-7,8.0,1.2,-4.0,-1.0,-6.5,-14.0,83,70,50,0.00,40.00,10,6,15,0.00
2013-4-8,11.0,4.4,-3.0,4.0,-0.4,-6.0,85,80,70,0.00,40.00,7,5,12,0.00
2013-4-9,8.0,4.8,3.0,4.0,1.3,-2.0,86,85,79,0.00,40.00,14,5,26,0.00
2013-4-10,10.0,3.8,-2.0,-1.0,-6.0,-12.0,83,64,45,0.00,40.00,16,9,26,0.00
2013-4-11,12.0,7.7,0.0,-4.0,-7.1,-12.0,73,51,41,0.00,40.00,11,4,18,0.00
2013-4-12,22.0,14.4,4.0,-1.0,-4.3,-10.0,56,43,35,0.00,40.00,6,3,11,0.05
2013-4-13,26.0,17.9,8.0,1.0,-3.4,-7.0,53,38,30,0.00,40.00,6,3,11,0.01
2013-4-14,27.0,20.0,14.0,17.0,6.0,-6.0,90,55,34,0.00,40.00,12,4,17,0.01
2013-4-15,30.0,21.1,17.0,17.0,3.6,-3.0,90,49,27,0.00,40.00,16,9,22,0.00
2013-4-16,26.0,19.7,14.0,15.0,4.3,-2.0,91,52,39,0.00,40.00,11,6,18,0.00
2013-4-17,28.0,20.5,13.0,11.0,4.6,1.0,78,51,35,0.00,40.00,12,6,19,0.00
2013-4-18,30.0,24.3,18.0,2.0,-0.1,-2.0,41,34,27,0.00,40.00,15,8,20,0.00
2013-4-19,40.0,27.5,16.0,9.0,3.9,-2.0,49,36,26,0.00,40.00,15,5,18,0.01
2013-4-20,44.0,32.4,22.0,9.0,4.8,0.0,39,30,23,0.00,40.00,9,4,15,0.01
2013-4-21,43.0,35.4,25.0,9.0,6.0,2.0,36,29,23,0.00,40.00,8,4,14,0.00
2013-4-22,47.0,40.7,30.0,12.0,8.4,2.0,31,26,21,0.00,40.00,6,3,12,0.00
2013-4-23,44.0,37.5,31.0,14.0,10.5,7.0,38,32,27,0.00,40.00,11,7,19,0.00
2013-4-24,36.0,29.8,27.0,26.0,20.5,8.0,94,71,31,0.00,40.00,17,9,29,0.00
2013-4-25,31.0,24.6,18.0,21.0,-2.0,-8.0,83,33,20,0.00,40.00,10,5,22,0.00
2013-4-26,29.0,22.4,15.0,19.0,4.0,-8.0,90,46,27,0.00,40.00,10,4,14,0.00
2013-4-27,28.0,22.7,17.0,19.0,4.2,-12.0,91,51,22,0.00,40.00,11,6,22,0.00
2013-4-28,33.0,22.6,12.0,8.0,-3.2,-13.0,40,31,25,0.00,40.00,11,5,22,0.00
2013-4-29,29.0,25.7,22.0,26.0,16.4,7.0,92,69,40,0.00,40.00,9,6,18,0.00
2013-4-30,32.0,27.2,24.0,26.0,24.1,22.0,94,87,68,0.00,40.00,9,3,15,0.02
2013-5-1,29.0,22.6,18.0,23.0,16.5,8.0,93,78,53,0.00,40.00,12,8,17,0.03
2013-5-2,34.0,22.1,12.0,11.0,8.7,7.0,85,58,35,0.00,40.00,6,4,11,0.02
2013-5-3,28.0,22.7,19.0,24.0,19.5,8.0,92,87,43,0.00,40.00,11,8,19,0.01
2013-5-4,33.0,23.2,17.0,24.0,16.9,13.0,90,78,45,0.00,40.00,9,4,17,0.16
2013-5-5,36.0,30.1,23.0,16.0,9.5,3.0,67,43,28,0.00,40.00,9,6,19,0.03
2013-5-6,40.0,33.4,26.0,10.0,6.5,1.0,38,31,26,0.00,40.00,9,4,20,0.00
2013-5-7,42.0,35.6,27.0,16.0,11.6,7.0,52,37,27,0.00,40.00,9,5,17,0.00
2013-5-8,47.0,39.8,30.0,17.0,12.9,8.0,43,33,26,0.00,40.00,7,4,15,0.00
2013-5-9,56.0,45.2,36.0,18.0,16.1,13.0,44,31,21,0.00,40.00,7,4,14,0.00
2013-5-10,56.0,47.4,38.0,21.0,16.3,-99.9,42,30,23,0.00,40.00,6,3,11,0.00
2013-5-11,54.0,48.2,43.0,22.0,18.1,-99.9,43,30,26,0.00,40.00,7,4,14,0.00
2013-5-12,47.0,40.2,32.0,26.0,23.2,21.0,67,51,40,0.00,40.00,10,6,19,0.00
2013-5-13,32.0,23.3,14.0,22.0,6.9,2.0,67,49,42,0.00,40.00,11,7,27,0.00
2013-5-14,38.0,28.8,20.0,15.0,11.1,7.0,61,47,36,0.00,40.00,7,3,12,0.00
2013-5-15,45.0,37.0,28.0,18.0,13.7,9.0,44,38,28,0.00,40.00,8,4,19,0.00
2013-5-16,48.0,37.0,32.0,23.0,5.8,-99.9,53,44,34,0.00,40.00,7,4,14,0.00
2013-5-17,40.0,28.7,21.0,28.0,20.0,-99.9,94,81,51,0.00,40.00,11,8,21,0.02
2013-5-18,30.0,22.8,16.0,16.0,2.8,-3.0,83,44,29,0.00,40.00,12,8,21,0.01
2013-5-19,40.0,31.0,20.0,8.0,3.2,-1.0,39,30,25,0.00,40.00,9,6,16,0.00
2013-5-20,51.0,41.0,31.0,11.0,7.9,4.0,33,25,18,0.00,40.00,7,4,14,0.00
2013-5-21,58.0,47.2,37.0,13.0,9.6,6.0,29,22,15,0.00,40.00,6,4,15,0.00
2013-5-22,60.0,51.6,42.0,19.0,15.4,8.0,30,23,17,0.00,40.00,9,4,20,0.00
2013-5-23,58.0,51.2,46.0,35.0,29.5,18.0,52,43,30,0.00,40.00,9,6,16,0.00
2013-5-24,64.0,54.8,45.0,37.0,34.1,30.0,64,46,31,0.00,40.00,9,4,12,0.00
2013-5-25,72.0,60.9,51.0,33.0,29.2,26.0,38,30,22,0.00,40.00,9,4,17,0.00
2013-5-26,74.0,64.4,53.0,32.0,29.2,25.0,33,26,21,0.00,40.00,7,3,13,0.00
2013-5-27,78.0,66.7,57.0,43.0,33.5,28.0,48,29,23,0.00,40.00,11,4,16,0.02
2013-5-28,77.0,68.0,58.0,40.0,36.5,33.0,38,31,24,0.00,40.00,6,3,12,0.02
2013-5-29,78.0,69.8,61.0,36.0,33.0,30.0,31,25,19,0.00,40.00,13,6,18,0.00
2013-5-30,80.0,69.7,60.0,41.0,35.4,30.0,36,28,22,0.00,40.00,11,4,17,0.01
2013-5-31,76.0,69.0,60.0,41.0,36.4,33.0,39,30,20,0.00,40.00,9,5,18,0.01
2013-6-1,73.0,64.2,56.0,40.0,35.6,31.0,40,34,29,0.00,40.00,11,5,18,0.00
2013-6-2,72.0,62.6,51.0,43.0,38.3,33.0,73,41,31,0.00,40.00,11,6,20,0.00
2013-6-3,62.0,53.3,47.0,44.0,40.2,36.0,87,63,38,0.00,40.00,13,4,19,0.00
2013-6-4,58.0,50.8,47.0,45.0,41.6,37.0,92,72,46,0.00,40.00,11,4,18,0.13
2013-6-5,53.0,47.3,44.0,45.0,40.8,37.0,94,78,56,0.00,40.00,10,6,23,0.28
2013-6-6,61.0,52.7,47.0,39.0,36.5,32.0,70,55,37,0.00,40.00,6,4,13,0.01
2013-6-7,66.0,57.1,50.0,46.0,36.8,33.0,75,47,33,0.00,40.00,6,2,12,0.12
2013-6-8,68.0,60.3,54.0,41.0,37.3,33.0,54,42,31,0.00,40.00,6,3,15,0.03
2013-6-9,61.0,55.6,51.0,42.0,35.5,30.0,65,47,39,0.00,40.00,10,6,18,0.00
2013-6-10,54.0,49.0,45.0,43.0,37.3,33.0,91,65,46,0.00,40.00,11,6,18,0.01
2013-6-11,64.0,53.4,44.0,38.0,35.4,33.0,76,52,32,0.00,40.00,7,3,14,0.01
2013-6-12,69.0,59.3,50.0,34.0,29.0,26.0,44,32,22,0.00,40.00,11,5,18,0.00
2013-6-13,75.0,64.0,53.0,35.0,31.6,26.0,42,30,18,0.00,40.00,6,2,12,0.00
2013-6-14,78.0,70.3,61.0,40.0,34.4,27.0,38,27,20,0.00,40.00,6,2,14,0.00
2013-6-15,80.0,71.9,62.0,47.0,38.9,29.0,43,30,23,0.00,40.00,4,2,12,0.00
2013-6-16,84.0,74.5,65.0,52.0,45.9,40.0,43,36,31,0.00,40.00,7,3,14,0.00
2013-6-17,82.0,74.8,66.0,48.0,41.2,34.0,46,31,20,0.00,40.00,12,7,21,0.00
2013-6-18,82.0,71.3,62.0,44.0,39.4,34.0,37,31,25,0.00,40.00,13,6,21,0.00
2013-6-19,83.0,72.7,59.0,45.0,41.0,36.0,46,32,25,0.00,40.00,6,3,18,0.00
2013-6-20,80.0,66.8,61.0,45.0,38.9,36.0,40,36,28,0.00,40.00,7,4,14,0.00
2013-6-22,72.0,64.7,52.0,42.0,40.1,37.0,63,41,31,0.00,40.00,4,2,9,0.01
2013-6-23,78.0,68.6,59.0,44.0,39.3,34.0,43,34,26,0.00,40.00,11,3,16,0.00
2013-6-24,83.0,72.6,64.0,47.0,42.9,40.0,42,35,27,0.00,40.00,11,5,16,0.00
2013-6-25,87.0,76.0,67.0,51.0,47.4,43.0,46,37,26,0.00,40.00,14,6,21,0.00
2013-6-26,84.0,74.6,67.0,54.0,49.9,46.0,49,42,34,0.00,40.00,13,6,21,0.00
2013-6-27,76.0,70.4,65.0,52.0,51.0,49.0,62,50,40,0.00,40.00,7,5,14,0.00
2013-6-28,73.0,67.1,63.0,52.0,49.9,47.0,63,54,41,0.00,40.00,7,4,11,0.00
2013-6-29,77.0,67.4,61.0,54.0,51.3,49.0,67,56,43,0.00,40.00,9,2,15,0.00
2013-6-30,80.0,69.0,62.0,55.0,49.9,42.0,62,51,37,0.00,40.00,9,3,24,0.00
2013-7-1,71.0,62.7,56.0,48.0,43.8,36.0,69,50,39,0.00,40.00,10,4,18,0.00
2013-7-2,65.0,57.4,48.0,45.0,40.0,36.0,83,53,39,0.00,40.00,10,4,16,0.08
2013-7-3,64.0,55.3,47.0,45.0,41.0,36.0,86,60,41,0.00,40.00,9,3,17,0.01
2013-7-4,64.0,54.1,45.0,48.0,38.9,35.0,92,58,38,0.00,40.00,7,4,19,0.13
2013-7-5,62.0,51.9,43.0,43.0,40.0,36.0,94,67,43,0.00,40.00,6,2,12,0.15
2013-7-6,70.0,58.6,49.0,41.0,38.2,35.0,70,48,31,0.00,40.00,7,3,21,0.00
2013-7-7,66.0,59.5,54.0,50.0,39.0,35.0,67,46,38,0.00,40.00,6,2,12,0.04
2013-7-8,59.0,52.7,50.0,51.0,43.6,-99.9,90,74,51,0.00,40.00,10,4,16,0.10
2013-7-9,58.0,51.7,46.0,48.0,43.4,40.0,92,74,52,0.00,40.00,11,6,21,0.01
2013-7-10,51.0,46.9,44.0,47.0,41.8,-99.9,94,86,68,0.00,40.00,9,5,17,0.15
2013-7-11,65.0,54.6,47.0,46.0,43.4,40.0,90,68,44,0.00,40.00,4,2,9,0.01
2013-7-12,76.0,64.6,54.0,40.0,36.4,32.0,56,37,22,0.00,40.00,9,4,13,0.00
2013-7-13,81.0,72.0,59.0,39.0,36.1,31.0,39,27,20,0.00,40.00,11,3,15,0.00
2013-7-14,82.0,75.6,65.0,48.0,44.8,35.0,43,34,26,0.00,40.00,9,4,15,0.00
2013-7-15,72.0,67.6,62.0,47.0,44.5,41.0,54,43,35,0.00,40.00,10,5,19,0.01
2013-7-16,63.0,58.2,54.0,51.0,48.0,44.0,80,69,54,0.00,40.00,7,4,19,0.01
2013-7-17,63.0,57.4,52.0,51.0,46.2,43.0,90,67,50,0.00,40.00,8,4,13,0.00
2013-7-18,67.0,58.5,54.0,53.0,45.7,42.0,92,64,39,0.00,40.00,6,-18,10,0.23
2013-7-19,55.0,53.6,52.0,52.0,50.3,44.0,92,88,72,0.00,40.00,14,7,22,0.53
2013-7-20,58.0,51.5,48.0,49.0,44.4,-99.9,91,79,57,0.00,40.00,13,9,23,0.13
2013-7-21,61.0,54.6,49.0,46.0,43.2,41.0,81,66,48,0.00,40.00,10,5,19,0.02
2013-7-22,68.0,59.4,52.0,45.0,43.4,42.0,75,57,39,0.00,40.00,7,3,12,0.00
2013-7-23,73.0,66.5,59.0,47.0,44.8,42.0,56,46,38,0.00,40.00,7,4,14,0.00
2013-7-24,68.0,62.2,58.0,56.0,50.7,46.0,83,66,48,0.00,40.00,11,6,17,0.03
2013-7-25,68.0,59.1,51.0,52.0,45.9,39.0,91,65,36,0.00,40.00,7,4,17,0.01
2013-7-26,70.0,63.0,55.0,47.0,42.1,38.0,54,46,38,0.00,40.00,11,5,16,0.01
2013-7-27,75.0,67.3,60.0,50.0,47.9,44.0,64,50,35,0.00,40.00,10,6,21,0.00
2013-7-28,83.0,76.1,66.0,50.0,47.8,44.0,49,37,27,0.00,40.00,7,4,15,0.00
2013-7-29,74.0,68.7,63.0,51.0,48.4,46.0,58,48,40,0.00,40.00,10,6,17,0.00
2013-7-30,70.0,63.3,55.0,49.0,47.3,44.0,76,56,44,0.00,40.00,8,4,16,0.00
2013-7-31,76.0,69.2,59.0,49.0,46.8,44.0,62,45,36,0.00,40.00,6,3,12,0.00
2013-8-1,82.0,73.4,62.0,49.0,46.5,42.0,56,39,30,0.00,40.00,5,2,11,0.00
2013-8-2,78.0,71.1,63.0,46.0,43.0,40.0,48,36,26,0.00,40.00,7,3,16,0.00
2013-8-3,76.0,66.9,61.0,45.0,39.9,36.0,41,37,30,0.00,40.00,11,5,22,0.01
2013-8-4,69.0,61.8,54.0,48.0,43.5,38.0,81,52,41,0.00,40.00,8,3,17,0.00
2013-8-5,71.0,60.9,52.0,49.0,43.6,38.0,83,56,34,0.00,40.00,7,2,14,0.00
2013-8-6,78.0,65.3,55.0,46.0,40.7,38.0,59,42,27,0.00,40.00,6,3,15,0.00
2013-8-7,81.0,70.7,60.0,44.0,40.2,37.0,44,33,24,0.00,40.00,6,3,13,0.00
2013-8-8,78.0,67.6,58.0,43.0,38.5,33.0,41,34,27,0.00,40.00,7,3,15,0.00
2013-8-9,69.0,61.9,58.0,45.0,41.4,38.0,55,47,39,0.00,40.00,6,2,16,0.00
2013-8-10,65.0,57.3,53.0,49.0,42.8,38.0,74,58,48,0.00,40.00,4,2,12,0.01
2013-8-11,71.0,60.7,53.0,50.0,44.1,40.0,70,55,38,0.00,40.00,6,3,11,0.01
2013-8-12,69.0,59.6,52.0,51.0,48.9,46.0,91,69,48,0.00,40.00,7,4,14,0.02
2013-8-13,75.0,63.6,55.0,52.0,49.0,-99.9,86,62,41,0.00,40.00,4,2,9,0.01
2013-8-14,66.0,59.3,54.0,49.0,44.5,-99.9,80,62,52,0.00,40.00,10,5,22,0.00
2013-8-15,65.0,54.0,52.0,52.0,38.1,-99.9,91,66,51,0.00,40.00,5,2,11,0.23
2013-8-16,67.0,56.3,51.0,51.0,45.3,-99.9,91,71,43,0.00,40.00,6,2,9,0.21
2013-8-17,67.0,58.4,52.0,49.0,45.3,-99.9,87,63,44,0.00,40.00,7,4,12,0.00
2013-8-18,67.0,54.6,48.0,50.0,45.2,36.0,92,74,31,0.00,40.00,10,5,17,0.00
2013-8-19,60.0,52.3,51.0,43.0,27.6,-99.9,71,53,42,0.00,40.00,7,2,12,0.00
2013-8-20,51.0,48.1,45.0,46.0,43.9,-99.9,92,88,71,0.00,40.00,9,5,18,0.49
2013-8-21,61.0,48.4,42.0,45.0,39.7,34.0,91,75,36,0.00,40.00,5,2,11,0.01
2013-8-22,61.0,54.2,48.0,48.0,38.8,31.0,90,57,42,0.00,40.00,5,2,9,0.09
2013-8-23,50.0,48.0,45.0,48.0,45.7,42.0,91,91,90,0.00,40.00,9,4,16,1.52
2013-8-24,56.0,47.1,43.0,42.0,32.7,-99.9,91,59,37,0.00,40.00,7,4,11,0.01
2013-8-25,58.0,46.3,38.0,30.0,26.0,22.0,60,46,27,0.00,40.00,9,4,14,0.00
2013-8-26,62.0,52.3,42.0,32.0,26.9,23.0,46,37,29,0.00,40.00,12,6,17,0.00
2013-8-27,49.0,46.4,44.0,30.0,26.6,24.0,52,46,38,0.00,40.00,12,5,17,0.00
2013-8-28,53.0,48.6,43.0,41.0,38.2,34.0,85,67,48,0.00,40.00,6,2,9,0.05
2013-8-29,49.0,46.6,45.0,44.0,41.5,36.0,90,83,61,0.00,40.00,10,4,16,0.18
2013-8-30,50.0,45.9,42.0,43.0,36.3,29.0,90,70,47,0.00,40.00,7,4,12,0.04
2013-8-31,45.0,40.5,37.0,31.0,25.9,-99.9,71,56,50,0.00,40.00,4,2,8,0.01
2013-9-1,43.0,40.4,36.0,37.0,30.5,21.0,80,67,48,0.00,40.00,8,4,15,0.07
2013-9-2,53.0,46.0,42.0,48.0,42.3,37.0,91,86,78,0.00,40.00,7,4,15,0.18
2013-9-3,65.0,53.3,47.0,47.0,42.0,40.0,89,66,44,0.00,40.00,6,3,16,0.13
2013-9-4,55.0,49.0,45.0,47.0,41.7,35.0,90,76,56,0.00,40.00,6,3,14,0.14
2013-9-5,54.0,46.6,40.0,41.0,37.9,33.0,90,72,51,0.00,40.00,9,4,16,0.01
2013-9-6,49.0,45.8,42.0,42.0,37.0,34.0,87,71,54,0.00,40.00,12,5,20,0.01
2013-9-7,49.0,45.6,42.0,45.0,41.3,-99.9,92,86,74,0.00,40.00,6,2,11,0.01
2013-9-8,47.0,44.6,42.0,44.0,42.3,40.0,92,91,86,0.00,40.00,7,4,14,0.32
2013-9-9,55.0,47.3,41.0,45.0,39.8,35.0,92,76,52,0.00,40.00,5,3,12,0.03
2013-9-10,60.0,52.7,48.0,38.0,34.6,33.0,56,50,38,0.00,40.00,4,2,13,0.00
2013-9-11,53.0,47.1,42.0,43.0,39.2,35.0,92,75,51,0.00,40.00,17,6,28,0.73
2013-9-12,56.0,46.4,37.0,42.0,38.0,33.0,91,73,57,0.00,40.00,17,4,27,0.20
2013-9-13,50.0,46.7,44.0,42.0,37.8,33.0,89,71,54,0.00,40.00,5,2,11,0.02
2013-9-14,47.0,43.2,41.0,43.0,37.3,-99.9,91,82,45,0.00,40.00,7,4,12,0.11
2013-9-15,51.0,42.2,36.0,31.0,27.3,22.0,73,56,36,0.00,40.00,9,3,16,0.01
2013-9-16,50.0,41.6,35.0,22.0,20.1,18.0,50,42,30,0.00,40.00,13,9,23,0.00
2013-9-17,37.0,31.5,26.0,26.0,19.4,17.0,91,61,48,0.00,40.00,13,6,23,0.00
2013-9-18,29.0,27.6,26.0,27.0,24.6,22.0,92,88,77,0.00,40.00,6,2,9,0.09
2013-9-19,33.0,28.9,26.0,27.0,24.7,23.0,91,84,68,0.00,40.00,6,2,9,0.07
2013-9-20,31.0,28.0,26.0,25.0,21.4,16.0,91,77,54,0.00,40.00,6,2,8,0.02
2013-9-21,36.0,28.3,25.0,19.0,13.9,-99.9,75,56,41,0.00,40.00,7,4,14,0.00
2013-9-22,28.0,25.4,24.0,24.0,20.4,14.0,91,81,54,0.00,40.00,9,5,14,0.00
2013-9-23,32.0,27.8,24.0,23.0,19.7,15.0,91,72,56,0.00,40.00,7,3,11,0.14
2013-9-24,36.0,31.6,27.0,18.0,16.2,14.0,60,52,42,0.00,40.00,7,4,19,0.01
2013-9-25,48.0,40.3,33.0,33.0,27.0,18.0,80,59,43,0.00,40.00,7,4,19,0.02
2013-9-26,41.0,37.3,35.0,35.0,33.0,31.0,91,84,73,0.00,40.00,9,3,15,0.01
2013-9-27,53.0,43.8,39.0,33.0,28.4,26.0,75,55,35,0.00,40.00,7,3,17,0.01
2013-9-28,42.0,36.5,34.0,33.0,29.6,-99.9,93,78,56,0.00,40.00,7,3,14,0.02
2013-9-29,38.0,35.4,34.0,35.0,30.9,23.0,93,84,59,0.00,40.00,6,3,12,0.07
2013-9-30,35.0,32.4,31.0,26.0,24.2,22.0,79,72,62,0.00,40.00,6,3,11,0.01
2013-10-1,33.0,31.7,31.0,28.0,27.2,26.0,88,83,78,0.00,40.00,2,1,4,0.02
2013-10-2,39.0,34.0,29.0,29.0,27.7,26.0,90,78,62,0.00,40.00,4,2,14,0.01
2013-10-3,46.0,39.3,34.0,30.0,26.8,25.0,83,61,47,0.00,40.00,7,4,17,0.00
2013-10-4,39.0,35.1,30.0,29.0,27.5,26.0,91,74,60,0.00,40.00,8,4,13,0.00
2013-10-5,39.0,32.1,27.0,32.0,28.0,26.0,93,85,60,0.00,40.00,7,4,19,0.00
2013-10-6,35.0,32.9,29.0,28.0,26.0,24.0,92,76,66,0.00,40.00,7,4,17,0.00
2013-10-7,31.0,30.0,29.0,29.0,28.0,27.0,92,92,92,0.00,40.00,6,3,19,0.04
2013-10-8,42.0,36.7,30.0,30.0,26.3,21.0,92,67,52,0.00,40.00,9,6,23,0.02
2013-10-9,36.0,31.2,29.0,31.0,29.3,27.0,93,92,71,0.00,40.00,16,10,32,0.03
2013-10-10,33.0,29.6,25.0,28.0,24.7,20.0,93,82,71,0.00,40.00,8,5,16,0.04
2013-10-11,42.0,34.9,32.0,25.0,23.2,22.0,71,62,48,0.00,40.00,6,4,14,0.01
2013-10-12,47.0,40.5,35.0,26.0,24.0,-99.9,66,52,41,0.00,40.00,7,5,16,0.00
2013-10-13,44.0,40.9,34.0,33.0,24.1,22.0,92,52,43,0.00,40.00,10,6,24,0.11
2013-10-14,42.0,37.5,34.0,33.0,29.1,27.0,92,72,59,0.00,40.00,9,5,22,0.12
2013-10-15,45.0,39.4,36.0,33.0,27.6,26.0,77,62,52,0.00,40.00,12,5,20,0.01
2013-10-16,48.0,45.7,42.0,38.0,31.6,29.0,86,58,47,0.00,40.00,8,5,21,0.05
2013-10-17,52.0,48.2,45.0,34.0,29.4,25.0,64,48,40,0.00,40.00,10,6,22,0.00
2013-10-18,51.0,44.6,42.0,31.0,26.1,18.0,64,48,37,0.00,40.00,11,6,20,0.00
2013-10-19,50.0,42.3,37.0,33.0,24.7,-99.9,78,51,40,0.00,40.00,12,6,24,0.00
2013-10-20,44.0,38.8,36.0,30.0,26.5,25.0,75,61,50,0.00,40.00,10,5,15,0.00
2013-10-21,39.0,34.9,29.0,27.0,23.9,21.0,72,63,55,0.00,40.00,6,4,12,0.00
2013-10-22,35.0,31.8,27.0,25.0,21.4,19.0,85,65,56,0.00,40.00,6,3,15,0.00
2013-10-23,30.0,26.3,22.0,24.0,22.0,19.0,93,83,73,0.00,40.00,7,3,12,0.00
2013-10-24,34.0,25.2,20.0,22.0,18.0,13.0,93,77,44,0.00,40.00,10,4,19,0.00
2013-10-25,36.0,31.8,25.0,21.0,17.5,15.0,78,56,44,0.00,40.00,9,5,16,0.00
2013-10-26,33.0,27.4,22.0,22.0,19.7,-99.9,89,74,64,0.00,40.00,11,4,22,0.00
2013-10-27,40.0,36.8,33.0,33.0,20.6,16.0,90,52,40,0.00,40.00,12,6,26,0.04
2013-10-28,50.0,40.3,33.0,35.0,30.6,-99.9,93,72,43,0.00,40.00,12,6,20,0.17
2013-10-29,36.0,31.7,28.0,34.0,28.8,22.0,93,89,67,0.00,40.00,13,7,28,0.26
2013-10-30,35.0,31.6,28.0,27.0,22.9,20.0,91,71,55,0.00,40.00,9,6,17,0.01
2013-10-31,31.0,24.9,22.0,23.0,20.9,20.0,90,85,64,0.00,40.00,7,3,12,0.01
2013-11-1,24.0,21.7,18.0,21.0,19.2,14.0,90,90,89,0.00,40.00,6,2,11,0.00
2013-11-2,25.0,21.4,17.0,19.0,16.4,-99.9,89,83,73,0.00,40.00,7,4,17,0.00
2013-11-3,29.0,25.7,22.0,19.0,17.6,17.0,83,71,61,0.00,40.00,9,6,22,0.00
2013-11-4,27.0,25.3,23.0,17.0,14.6,13.0,71,63,56,0.00,40.00,11,6,21,0.00
2013-11-5,23.0,19.7,12.0,19.0,15.1,8.0,90,82,65,0.00,40.00,12,6,21,0.00
2013-11-6,14.0,10.9,7.0,11.0,6.7,2.0,86,82,69,0.00,40.00,10,4,21,0.00
2013-11-7,17.0,12.2,9.0,3.0,0.6,-1.0,70,58,47,0.00,40.00,10,6,24,0.00
2013-11-8,12.0,4.5,0.0,8.0,0.0,-4.0,84,81,67,0.00,40.00,10,4,21,0.00
2013-11-9,23.0,15.3,11.0,15.0,10.5,-99.9,86,82,78,0.00,40.00,11,8,21,0.00
2013-11-10,30.0,26.2,23.0,29.0,22.9,15.0,94,87,72,0.00,40.00,15,8,28,0.00
2013-11-11,23.0,16.4,11.0,16.0,9.7,4.0,85,74,66,0.00,40.00,9,7,17,0.00
2013-11-12,12.0,9.5,8.0,5.0,3.8,3.0,83,77,66,0.00,40.00,10,4,21,0.00
2013-11-13,31.0,12.7,8.0,29.0,8.5,3.0,92,82,76,0.00,40.00,10,5,21,0.00
2013-11-20,-12.0,-14.7,-19.0,-17.0,-19.9,-25.0,76,76,75,0.00,40.00,4,2,10,0.00
2013-11-21,0.0,-13.0,-19.0,-5.0,-18.3,-25.0,79,76,75,0.00,40.00,6,3,16,0.00
2013-11-22,9.0,5.6,0.0,6.0,1.5,-5.0,83,82,79,0.00,40.00,7,3,16,0.00
2013-11-23,12.0,4.4,0.0,7.0,-0.5,-99.9,83,82,81,0.00,40.00,7,4,16,0.00
2013-11-24,18.0,14.7,11.0,12.0,9.9,7.0,85,80,76,0.00,40.00,7,4,16,0.00
2013-11-25,14.0,12.4,10.0,11.0,8.9,7.0,85,85,84,0.00,40.00,6,2,9,0.00
2013-11-26,10.0,7.3,2.0,2.0,0.5,-3.0,80,73,67,0.00,40.00,4,2,6,0.00
2013-11-27,4.0,0.2,-3.0,-1.0,-4.6,-8.0,80,79,79,0.00,40.00,7,4,14,0.00
2013-11-28,1.0,-0.2,-2.0,-3.0,-5.0,-7.0,79,79,79,0.00,40.00,9,6,17,0.00
2013-11-29,-1.0,-2.9,-8.0,-6.0,-7.9,-13.0,79,79,77,0.00,40.00,7,3,10,0.00
2013-11-30,-4.0,-6.7,-10.0,-9.0,-13.5,-99.9,78,76,77,0.00,40.00,2,1,5,0.00
2013-12-1,-10.0,-11.4,-12.0,-15.0,-16.4,-17.0,76,76,76,0.00,40.00,4,3,11,0.00
2013-12-2,-1.0,-2.7,-6.0,-7.0,-8.2,-12.0,78,76,75,0.00,40.00,10,7,16,0.00
2013-12-3,12.0,5.5,-2.0,2.0,-2.3,-8.0,75,69,61,0.00,40.00,9,6,17,0.00
2013-12-4,21.0,13.4,5.0,5.0,1.9,-3.0,69,60,47,0.00,40.00,8,6,22,0.00
2013-12-5,20.0,17.1,13.0,11.0,6.9,4.0,76,63,55,0.00,40.00,12,8,23,0.00
2013-12-6,31.0,21.6,18.0,22.0,11.3,8.0,71,64,59,0.00,40.00,11,6,22,0.00
2013-12-7,35.0,30.4,24.0,30.0,23.2,-99.9,90,76,67,0.00,40.00,7,4,12,0.25
2013-12-8,36.0,32.0,29.0,31.0,29.6,25.0,93,91,81,0.00,40.00,11,4,19,0.11
2013-12-9,31.0,25.7,22.0,29.0,23.7,19.0,93,91,89,0.00,40.00,5,2,11,0.01
2013-12-10,22.0,9.9,4.0,19.0,5.3,-5.0,89,81,66,0.00,40.00,0,0,0,0.00
2013-12-11,4.0,1.3,-2.0,-5.0,-10.6,-15.0,67,56,50,0.00,40.00,20,15,29,0.00
2013-12-12,0.0,-2.6,-5.0,-11.0,-16.2,-19.0,72,52,47,0.00,40.00,28,20,39,0.00
2013-12-13,-3.0,-4.4,-6.0,-11.0,-16.5,-19.0,72,55,50,0.00,40.00,19,14,32,0.00
2013-12-14,-4.0,-6.9,-10.0,-10.0,-14.7,-99.9,74,70,53,0.00,40.00,12,6,19,0.00
2013-12-15,-10.0,-13.7,-18.0,-16.0,-19.8,-25.0,74,73,72,0.00,40.00,10,7,17,0.00
2013-12-16,-16.0,-18.3,-22.0,-22.0,-24.7,-29.0,72,72,71,0.00,40.00,6,3,9,0.00
2013-12-17,-8.0,-15.8,-21.0,-14.0,-22.1,-28.0,74,72,71,0.00,40.00,7,5,12,0.00
2013-12-18,4.0,-3.3,-8.0,-2.0,-8.9,-14.0,77,76,73,0.00,40.00,9,6,20,0.00
2013-12-19,6.0,3.3,0.0,-1.0,-3.0,-7.0,79,74,65,0.00,40.00,9,5,17,0.00
2013-12-20,7.0,4.9,3.0,-1.0,-2.3,-4.0,74,71,68,0.00,40.00,7,5,20,0.00
2013-12-21,9.0,7.2,4.0,5.0,1.7,-99.9,82,79,72,0.00,40.00,9,6,22,0.00
2013-12-22,10.0,7.5,3.0,5.0,3.2,-3.0,82,81,75,0.00,40.00,16,9,28,0.00
2013-12-23,4.0,1.8,-3.0,-2.0,-3.7,-7.0,79,77,68,0.00,40.00,17,8,25,0.00
2013-12-24,-1.0,-3.0,-4.0,-6.0,-8.1,-9.0,79,78,78,0.00,40.00,5,3,9,0.00
2013-12-27,-5.0,-9.5,-12.0,-16.0,-18.8,-21.0,65,62,57,0.00,40.00,8,5,17,0.00
2013-12-28,3.0,-0.5,-6.0,-4.0,-9.6,-99.9,76,65,59,0.00,40.00,7,4,18,0.00
2013-12-29,6.0,3.6,1.0,0.0,-1.5,-4.0,80,78,73,0.00,40.00,7,4,15,0.00
2013-12-30,7.0,4.9,3.0,-1.0,-1.4,-2.0,76,74,70,0.00,40.00,7,4,14,0.00
2013-12-31,17.0,10.2,8.0,5.0,1.4,-1.0,68,66,63,0.00,40.00,9,6,22,0.00
2014-1-1,18.0,17.1,14.0,9.0,7.4,5.0,66,64,63,0.00,40.00,9,5,22,0.00
2014-1-2,11.0,6.8,5.0,7.0,2.5,1.0,83,82,78,0.00,40.00,8,4,15,0.00